Location: Unspecified
(0.0000°N, 0.0000°E)
Time: 00:04:11
(UTC+00:00)

N. Korean satellite - Pass Details

Date: 12 July 2019
Orbit: 456 x 506 km, 97.2° (Epoch: 18 November)

Event Time Altitude Azimuth Distance (km) Brightness Sun altitude
Rises 04:57:04 0° 37° (NE) 2,585 11.3 -15.9°
Reaches altitude 10° 04:59:37 10° 56° (ENE) 1,710 10.7 -15.3°
Maximum altitude 05:02:13 18° 101° (ESE) 1,279 9.4 -14.7°
Drops below altitude 10° 05:04:49 10° 146° (SE) 1,722 9.5 -14.1°
Sets 05:07:24 0° 165° (SSE) 2,610 10.2 -13.5°
